Vorticity
2 2 37 27 3 19 24 8 15 5 5 4 6 2 2 3 3 3 1 2 2 5 3 4 2 2 3 2 2 2 3 6 7 8 8 5 6 4 4 4 3 3 3 2 2 1 3 3 3
2 1 -2 34 25 19 5 1 1 4 3 2 6 5 4 3 4 5 4 7 4 4 5 4 3 3 3 3 3 3 -0 5 6 7 8 7 6 4 4 3 5 5 3 3 4 3 2 1 1
7 3 -10 0 27 3 20 23 2 12 8 1 3 3 4 4 1 5 2 6 9 3 6 4 5 3 5 3 4 4 2 5 6 6 8 7 6 6 4 4 5 4 4 5 3 4 4 4 4
3 3 7 2 27 6 27 26 6 1 2 -1 -1 5 5 3 4 4 3 3 2 5 4 5 5 5 4 4 4 4 3 4 5 6 7 7 9 7 6 5 4 4 3 5 5 4 3 3 5
5 3 2 7 1 9 14 -5 18 32 3 6 10 3 2 1 2 3 4 2 4 7 3 3 4 5 5 3 5 5 4 4 6 7 8 7 8 8 4 4 5 5 5 4 5 5 6 5 4
9 5 2 4 5 5 4 -2 8 -1 9 22 12 12 13 9 9 7 3 1 2 1 5 4 3 3 5 6 3 5 4 3 7 7 8 7 9 8 6 5 5 5 5 4 5 4 5 5 5
11 9 8 5 8 5 8 3 3 6 2 7 15 2 -1 6 11 -0 3 3 2 2 1 3 4 3 3 4 5 4 5 2 6 7 7 8 7 8 6 5 5 6 4 4 5 3 3 4 4
17 12 10 11 6 6 9 10 4 0 3 3 6 3 13 3 -2 1 3 0 2 3 3 2 3 4 3 3 4 5 4 4 3 8 6 6 8 7 7 6 6 4 3 4 4 4 4 4 4
27 21 11 10 9 6 5 6 4 5 5 1 1 7 3 4 8 5 2 5 0 3 3 2 2 2 3 2 3 3 5 4 3 7 11 8 6 8 7 7 6 5 4 5 5 5 6 5 5
19 24 27 10 9 9 5 7 7 4 4 4 2 6 5 6 2 7 7 1 3 5 3 4 2 3 3 4 5 4 5 6 3 6 8 11 3 6 5 5 6 7 6 5 5 5 5 6 6
33 34 26 25 16 12 7 4 7 6 3 4 2 4 5 6 4 3 4 7 2 3 9 8 4 3 1 2 3 4 6 6 4 6 6 6 6 3 5 5 5 6 4 4 5 5 7 7 7
34 35 32 23 22 20 14 5 6 7 3 2 4 4 3 5 4 7 3 8 3 2 1 2 13 5 3 3 5 5 6 6 5 5 7 5 6 6 6 5 5 5 5 5 5 6 7 7 6
30 28 35 24 20 19 19 9 3 6 2 5 3 4 3 2 5 5 8 7 10 4 4 3 1 4 6 5 7 7 5 7 5 5 7 5 6 7 7 4 4 3 4 5 7 7 7 5 5
24 24 33 30 25 23 23 19 6 6 7 4 1 3 5 1 4 5 4 9 7 10 6 7 3 3 3 5 6 4 7 6 3 4 7 5 6 7 7 5 4 5 6 3 6 7 6 5 6
26 29 27 25 20 26 41 28 10 3 7 3 3 3 3 2 2 3 11 6 5 10 8 5 4 7 10 2 6 5 4 9 5 4 6 7 7 7 6 5 4 7 9 6 3 7 6 7 5
28 23 25 32 20 26 38 36 34 18 17 6 3 6 4 4 2 1 1 6 -3 3 12 9 6 6 5 7 7 5 3 5 6 4 6 7 7 7 6 6 7 4 5 7 4 1 4 6 2
32 25 22 25 28 21 24 35 51 40 16 19 1 5 7 4 4 1 2 8 0 2 6 8 4 6 9 8 8 5 4 7 7 7 6 8 8 7 8 6 5 8 6 3 7 4 3 2 2
46 32 25 25 31 28 28 35 37 40 47 26 13 4 13 7 5 4 3 4 7 -4 14 2 4 2 -0 13 7 7 6 1 2 6 6 7 5 9 9 5 6 1 8 3 5 4 7 6 4
15 24 29 22 21 21 28 28 34 37 38 30 28 13 19 2 7 7 3 3 3 -5 7 0 4 7 7 -3 11 3 3 3 3 5 8 7 9 12 6 6 6 -0 6 7 5 7 7 7 8
1 7 8 30 31 10 16 17 31 29 23 36 54 -4 22 29 8 6 4 5 5 -1 0 3 13 -0 3 11 0 14 7 9 7 5 9 7 9 9 10 3 6 1 4 7 5 6 12 7 6
-0 4 10 16 13 31 21 -3 2 34 27 63 -12 23 47 -10 32 11 3 13 4 -10 -2 -2 5 14 -2 1 17 17 12 1 2 6 5 7 4 9 8 4 2 1 4 10 8 3 2 3 8
19 -0 6 4 24 31 31 13 13 14 45 -14 23 20 -7 2 -2 72 10 3 4 -4 -2 -0 -8 14 -6 19 7 1 3 7 3 8 6 5 6 7 13 6 4 1 3 11 8 3 2 1 5
12 16 14 26 11 8 42 11 34 27 14 18 13 20 36 21 -8 12 57 11 15 -11 -7 -3 -12 17 -14 -27 6 11 -5 13 4 9 4 2 11 3 4 10 8 11 2 5 5 9 3 5 4
16 12 6 -7 6 22 8 27 52 11 36 46 9 2 11 59 -13 -15 28 50 17 8 9 14 7 -14 -8 18 -11 -6 12 12 10 5 6 5 -0 3 8 2 7 4 9 4 9 4 -1 2 2
20 15 14 17 -0 -5 13 23 21 31 5 36 55 -12 3 -21 4 -22 -6 -17 68 21 -37 9 21 9 5 6 13 -0 17 9 20 10 21 7 7 7 5 8 5 5 7 7 7 8 6 5 5
7 16 20 15 17 2 7 13 17 31 10 21 34 52 -14 19 19 28 -3 5 0 35 6 -68 36 10 -7 16 6 14 -4 -9 17 11 16 11 14 0 -1 -3 14 5 3 3 6 8 11 5 5
6 9 10 17 21 16 11 4 2 24 37 20 23 36 18 8 4 34 -25 -5 45 23 12 17 36 38 -37 12 -2 1 -19 6 -6 -6 -7 11 8 16 -20 9 9 11 4 3 3 7 10 7 4
13 7 6 7 11 19 16 13 4 4 15 40 22 15 27 -3 -4 30 13 0 35 23 5 14 -5 -2 -9 -5 15 12 4 16 2 7 0 2 2 7 7 8 -13 4 1 -2 4 5 7 10 5
7 8 11 9 10 7 14 5 21 13 7 18 31 24 17 31 9 4 24 -1 -32 19 -3 15 -14 34 17 12 -0 -14 22 5 16 3 13 3 10 7 4 10 -38 39 -14 -18 5 2 7 6 7
9 8 9 9 6 11 6 8 13 20 21 15 23 17 29 15 -4 13 2 34 5 8 -1 22 23 9 -11 8 10 4 -10 -8 9 18 12 -2 2 10 16 2 11 -50 5 14 21 43 5 2 7
Height
5766 5764 5767 5770 5775 5776 5778 5786 5793 5797 5801 5807 5810 5812 5819 5824 5827 5837 5841 5841 5845 5849 5851 5854 5857 5859 5861 5863 5865 5866 5867 5869 5870 5873 5876 5878 5880 5883 5886 5887 5889 5890 5892 5894 5896 5898 5899 5900 5901
5763 5762 5764 5766 5770 5772 5778 5780 5787 5793 5797 5801 5805 5807 5810 5817 5821 5829 5835 5837 5841 5844 5847 5850 5853 5856 5859 5861 5863 5865 5866 5867 5868 5870 5873 5876 5878 5880 5883 5886 5888 5890 5891 5894 5896 5898 5898 5900 5900
5760 5759 5758 5764 5767 5770 5770 5769 5773 5783 5787 5788 5794 5799 5803 5809 5816 5824 5829 5833 5836 5839 5842 5845 5849 5852 5855 5858 5861 5863 5865 5865 5866 5868 5870 5873 5876 5879 5881 5883 5887 5889 5891 5893 5894 5896 5898 5899 5899
5750 5751 5751 5755 5762 5765 5765 5762 5767 5777 5782 5787 5789 5794 5801 5806 5811 5820 5823 5827 5832 5834 5838 5841 5845 5848 5851 5854 5858 5860 5863 5863 5864 5866 5868 5871 5874 5876 5879 5882 5884 5886 5889 5891 5893 5894 5897 5898 5899
5741 5742 5741 5745 5752 5757 5759 5761 5763 5765 5770 5778 5783 5787 5793 5802 5807 5813 5817 5822 5826 5829 5832 5835 5839 5843 5847 5850 5854 5857 5859 5861 5862 5864 5866 5869 5871 5874 5876 5879 5881 5883 5886 5889 5890 5893 5895 5896 5897
5728 5728 5730 5731 5737 5743 5749 5754 5757 5760 5761 5766 5772 5781 5788 5794 5799 5805 5809 5814 5819 5822 5826 5830 5834 5838 5842 5846 5849 5853 5856 5858 5860 5861 5864 5867 5869 5871 5874 5876 5879 5881 5884 5886 5888 5890 5892 5893 5894
5714 5711 5715 5717 5722 5727 5736 5745 5751 5754 5757 5760 5764 5770 5780 5785 5791 5796 5802 5808 5813 5816 5821 5825 5829 5833 5838 5841 5844 5848 5852 5855 5857 5858 5860 5863 5865 5868 5871 5874 5876 5878 5881 5884 5886 5887 5889 5891 5892
5698 5693 5695 5700 5704 5710 5718 5730 5738 5744 5749 5750 5752 5757 5764 5771 5779 5788 5794 5800 5805 5810 5814 5819 5822 5828 5833 5836 5839 5844 5848 5851 5854 5855 5857 5859 5862 5865 5868 5870 5873 5876 5878 5881 5883 5885 5886 5888 5890
5676 5675 5673 5678 5684 5692 5699 5711 5722 5730 5736 5738 5742 5745 5753 5760 5768 5776 5784 5791 5796 5802 5807 5813 5818 5823 5829 5832 5835 5838 5843 5847 5850 5852 5855 5856 5858 5861 5863 5866 5869 5873 5875 5878 5880 5882 5883 5885 5887
5654 5652 5648 5651 5659 5670 5676 5690 5702 5712 5722 5725 5728 5736 5742 5748 5754 5764 5774 5782 5787 5794 5802 5808 5812 5819 5823 5827 5829 5833 5838 5842 5845 5847 5851 5852 5853 5856 5858 5862 5865 5869 5871 5874 5876 5879 5880 5882 5884
5626 5626 5623 5625 5632 5643 5657 5664 5680 5693 5701 5710 5715 5724 5732 5738 5743 5752 5762 5772 5779 5786 5793 5800 5807 5812 5816 5820 5825 5828 5833 5837 5840 5843 5845 5847 5849 5852 5855 5858 5860 5864 5866 5869 5872 5875 5876 5878 5880
5602 5597 5597 5596 5603 5616 5630 5640 5655 5669 5684 5692 5702 5711 5719 5728 5734 5743 5753 5761 5765 5773 5783 5791 5798 5803 5809 5813 5819 5823 5827 5830 5834 5838 5841 5841 5845 5848 5850 5853 5855 5858 5862 5865 5867 5871 5873 5874 5876
5580 5578 5574 5572 5575 5586 5599 5616 5626 5646 5662 5672 5686 5695 5704 5712 5724 5733 5744 5753 5758 5766 5774 5781 5788 5794 5801 5805 5812 5816 5820 5824 5827 5831 5834 5836 5840 5843 5846 5848 5850 5853 5857 5860 5863 5866 5869 5871 5873
5561 5557 5555 5552 5552 5558 5570 5588 5606 5625 5641 5652 5666 5679 5687 5698 5711 5721 5733 5744 5750 5758 5763 5774 5780 5786 5793 5799 5805 5810 5813 5817 5821 5824 5828 5831 5834 5838 5840 5843 5846 5849 5852 5855 5858 5861 5864 5866 5869
5544 5544 5540 5534 5538 5542 5544 5564 5580 5596 5615 5632 5644 5658 5665 5684 5698 5710 5723 5734 5740 5749 5756 5766 5773 5778 5786 5792 5799 5803 5806 5811 5815 5818 5821 5825 5828 5831 5834 5838 5842 5845 5848 5851 5854 5856 5859 5861 5864
5536 5532 5529 5529 5527 5527 5532 5548 5556 5566 5587 5610 5622 5638 5656 5671 5684 5698 5710 5723 5732 5740 5748 5757 5764 5772 5779 5783 5791 5796 5800 5805 5807 5811 5814 5818 5823 5826 5829 5833 5837 5840 5844 5846 5849 5851 5853 5856 5859
5532 5527 5524 5523 5521 5521 5523 5532 5538 5555 5573 5587 5609 5624 5640 5656 5670 5684 5697 5712 5722 5731 5742 5749 5756 5763 5769 5776 5782 5788 5792 5796 5799 5803 5807 5812 5816 5821 5825 5828 5830 5836 5840 5841 5842 5845 5848 5851 5854
5535 5527 5523 5519 5519 5518 5520 5526 5533 5547 5558 5573 5594 5609 5627 5640 5656 5670 5683 5699 5712 5722 5733 5741 5748 5755 5761 5765 5772 5779 5783 5786 5792 5796 5800 5805 5809 5815 5818 5822 5824 5829 5833 5835 5838 5840 5842 5845 5848
5545 5536 5529 5523 5519 5519 5521 5526 5530 5541 5553 5567 5584 5596 5612 5628 5642 5657 5670 5686 5702 5712 5722 5731 5738 5745 5752 5756 5763 5770 5774 5780 5785 5790 5794 5797 5802 5807 5811 5815 5817 5821 5826 5828 5830 5834 5837 5839 5841
5554 5546 5539 5533 5527 5523 5523 5527 5532 5540 5551 5561 5575 5589 5600 5618 5630 5645 5658 5673 5689 5701 5711 5722 5729 5736 5744 5749 5756 5762 5766 5770 5776 5781 5785 5788 5794 5798 5802 5807 5810 5814 5817 5821 5824 5826 5830 5832 5833
5563 5554 5547 5540 5536 5532 5529 5530 5536 5540 5550 5558 5573 5583 5595 5608 5620 5635 5648 5660 5675 5690 5701 5710 5720 5726 5735 5743 5746 5750 5755 5759 5763 5769 5775 5782 5789 5792 5795 5798 5802 5806 5809 5813 5817 5820 5823 5825 5827
5568 5561 5554 5547 5542 5538 5536 5538 5540 5542 5548 5554 5564 5579 5592 5605 5615 5623 5638 5651 5664 5678 5690 5699 5708 5716 5725 5733 5737 5741 5745 5752 5757 5763 5768 5773 5779 5784 5787 5790 5794 5798 5801 5806 5810 5813 5815 5817 5820
5575 5568 5562 5555 5550 5546 5542 5542 5543 5544 5547 5553 5565 5574 5588 5603 5610 5617 5627 5640 5653 5665 5676 5687 5697 5707 5714 5721 5728 5731 5736 5740 5746 5751 5754 5761 5767 5771 5776 5780 5784 5790 5793 5796 5801 5805 5808 5810 5812
5583 5575 5569 5563 5558 5552 5548 5547 5547 5547 5549 5552 5562 5568 5582 5595 5606 5614 5621 5633 5645 5654 5665 5677 5686 5695 5703 5710 5715 5718 5722 5727 5734 5739 5745 5750 5756 5762 5767 5770 5773 5778 5782 5786 5790 5795 5797 5800 5803
5588 5582 5574 5569 5563 5560 5556 5553 5550 5551 5551 5555 5560 5567 5578 5589 5602 5610 5618 5627 5636 5647 5656 5667 5674 5683 5691 5697 5701 5706 5711 5717 5722 5728 5733 5739 5744 5751 5756 5760 5764 5768 5772 5776 5780 5784 5788 5791 5793
5597 5586 5578 5573 5569 5567 5563 5561 5557 5554 5556 5557 5560 5566 5576 5583 5595 5606 5612 5620 5627 5638 5647 5653 5662 5671 5680 5683 5689 5694 5699 5704 5709 5716 5721 5726 5732 5738 5744 5748 5753 5757 5761 5764 5769 5772 5778 5780 5783
5602 5595 5588 5581 5575 5570 5567 5566 5564 5560 5558 5560 5562 5566 5574 5579 5586 5596 5610 5617 5623 5630 5639 5644 5651 5655 5662 5668 5676 5681 5686 5690 5696 5702 5707 5714 5720 5725 5730 5734 5740 5745 5750 5754 5757 5761 5766 5769 5771
5608 5601 5595 5587 5582 5576 5573 5570 5567 5566 5565 5564 5566 5570 5572 5576 5581 5589 5599 5611 5618 5619 5625 5631 5636 5640 5645 5655 5664 5669 5672 5677 5682 5688 5692 5699 5705 5710 5714 5719 5726 5732 5736 5739 5743 5748 5753 5756 5759
5616 5606 5599 5595 5589 5583 5578 5575 5571 5570 5570 5570 5570 5572 5574 5576 5578 5583 5591 5600 5611 5614 5615 5619 5624 5630 5634 5640 5646 5651 5658 5662 5667 5672 5677 5683 5690 5694 5699 5704 5710 5713 5721 5725 5729 5732 5737 5740 5745
5619 5612 5605 5600 5594 5588 5585 5581 5576 5574 5572 5571 5572 5573 5573 5575 5575 5580 5584 5589 5593 5602 5606 5610 5614 5618 5623 5626 5632 5636 5640 5645 5651 5656 5660 5667 5672 5678 5682 5688 5691 5695 5700 5707 5710 5716 5719 5723 5728